User: anonymous
Location: Caltech
(34.1382°N, 118.1253°W)
Time: 10:28:17
(UTC-07:00)
Language:

deb Explorer IX - Orbit

View from above orbital plane
View from above orbital plane
View from above satellite
View from above satellite

Ground track
Ground track

The orbit data is extracted from the following two-line orbital elements,

1 00085U 61004C   14258.00440442  .00007506  00000-0  19774-2 0   294
2 00085 038.7707 234.3377 0453681 264.8319 090.0507 14.01761280632884
Epoch (UTC): 15 September 2014 00:06:20
Eccentricity: 0.0453681
inclination: 38.7707°
perigee height: 558 km
apogee height: 1217 km
right ascension of ascending node: 234.3377°
argument of perigee: 264.8319°
revolutions per day: 14.01761280
mean anomaly at epoch: 90.0507°
orbit number at epoch: 63288

The dashed part of the orbit path shows where the satellite is in the earth's shadow,  

DLR